Regional Weather Roundup
Issued by NWS

Home | Current Version | Previous Version | Text Only | Print | Product List | Glossary Off
Versions: 1 2 3 4 5 6 7 8 9 10 11 12 13 14 15 16 17 18 19 20 21 22 23 24 25 26 27 28 29 30 31 32 33 34 35 36 37 38 39 40 41 42 43 44 45 46 47 48 49 50

000
ASUS43 KDTX 260101
RWRMI
MICHIGAN HOURLY REGIONAL WEATHER ROUNDUP
NATIONAL WEATHER SERVICE DETROIT/PONTIAC MI
800 PM EST TUE NOV 25 2014

NOTE: "FAIR" INDICATES FEW OR NO CLOUDS BELOW 12,000 FEET WITH NO
SIGNIFICANT WEATHER AND/OR OBSTRUCTION TO VISIBILITY.

MIZ047>049-052>055-059>063-066>070-074>076-081>083-260200-
SOUTHEAST LOWER MICHIGAN

CITY           SKY/WX    TMP DP  RH WIND       PRES   REMARKS
ADRIAN         CLOUDY    28  20  71 W6        30.19R WCI  22
ALMA           CLOUDY    29  23  77 W5        30.14R WCI  24
ANN ARBOR      CLOUDY    30  21  69 SW7       30.16R WCI  23
BAD AXE        CLOUDY    32  26  81 W9        30.12R WCI  24
CARO           CLOUDY    32  23  69 W7        30.12S WCI  26
DETROIT CITY   CLOUDY    33  21  61 W7        30.17R WCI  27
DETROIT        CLOUDY    31  21  66 SW8       30.18R WCI  23
FLINT          CLOUDY    32  22  66 W8        30.15R WCI  25
GROSSE ILE     CLOUDY    30  21  69 W7        30.17R WCI  23
HILLSDALE      CLOUDY    27  21  78 NW5       30.15R WCI  22
HOWELL         CLOUDY    30  23  77 W6        30.14R WCI  24

CITY           SKY/WX    TMP DP  RH WIND       PRES   REMARKS
JACKSON        CLOUDY    28  22  78 SW7       30.15R WCI  21
LAMBERTVILLE   CLOUDY    32  23  69 W3        30.20R
LANSING        CLOUDY    29  20  69 W12       30.15R WCI  19
LAPEER         CLOUDY    31  23  72 W5        30.13R WCI  26
MASON          CLOUDY    30  23  76 W6        30.15R WCI  24
MONROE         CLOUDY    30  21  69 CALM      30.18R
MT. CLEMENS    CLOUDY    32  24  71 W7        30.14R WCI  26
PONTIAC        FLURRIES  29  22  75 W7        30.13R WCI  22
PORT HOPE        N/A     33  23  66 VRB7      30.09R WCI  27
PORT HURON     CLOUDY    32  25  74 SW3       30.15R
TRI CITIES     CLOUDY    32  21  64 W10       30.15R WCI  24
TROY           CLOUDY    33  24  69 SW7       30.17R WCI  26
SAGINAW HB     CLOUDY    32  23  69 SW12      30.13R WCI  23
$$
MIZ043>046-050>051-056>058-064>065-071>073-077>080-260200-
SOUTHWEST LOWER MICHIGAN

CITY           SKY/WX    TMP DP  RH WIND       PRES   REMARKS
BATTLE CREEK   CLOUDY    30  20  66 W6        30.15S WCI  24
BENTON HARBOR  CLOUDY    28  21  75 SW7       30.17R WCI  21
BIG RAPIDS     CLOUDY    27  24  86 W6        30.11R WCI  21
COLDWATER      CLOUDY    29  22  75 W5        30.16R WCI  24
FREMONT        CLOUDY    27  23  85 CALM      30.13R
HOLLAND        CLOUDY    31  23  72 W3        30.15S
GRAND RAPIDS   CLOUDY    29  22  75 W9        30.14R WCI  20
IONIA          CLOUDY    30  23  75 W9        30.14R WCI  22
KALAMAZOO      CLOUDY    28  21  75 SW6       30.16R WCI  22
LUDINGTON      CLOUDY    27  22  80 CALM      30.12S
MARSHALL       CLOUDY    27  20  76 W5        30.14S WCI  22
MOUNT PLEASANT CLOUDY    29  20  69 W8        30.13R WCI  21
MUSKEGON       CLOUDY    30  21  69 SW5       30.15R WCI  25
SOUTH HAVEN    CLOUDY    31  24  73 CALM      30.16R
$$
MIZ016>042-260200-
NORTHERN LOWER MICHIGAN

CITY           SKY/WX    TMP DP  RH WIND       PRES   REMARKS
ALPENA         LGT SNOW  28  26  92 W3        30.08R FOG
BEAVER ISLAND  CLOUDY    29  19  67 NW5       30.07R WCI  24
BELLAIRE       CLOUDY    29  23  78 SW5       30.09S WCI  24
CADILLAC       CLOUDY    24  21  86 SW10      30.07R WCI  14
CHARLEVOIX     CLOUDY    28  23  80 SW3       30.10R
FRANKFORT      CLOUDY    28  22  80 W5        30.10R WCI  22
GAYLORD        CLOUDY    25  22  88 W9        30.04R WCI  15
GRAYLING       CLOUDY    27  24  87 SW6       30.08R WCI  21
HARBOR SPRINGS CLOUDY    27  21  76 NW3       30.06S
HOUGHTON LAKE  CLOUDY    26  19  74 W10       30.09R WCI  16
MANISTEE       CLOUDY    27  19  74 W5        30.12R WCI  21
OSCODA         CLOUDY    30  23  75 W8        30.10R WCI  22
PELLSTON       CLOUDY    26  22  84 CALM      30.07S
ROGERS CITY    CLOUDY    27  26  94 W6        30.08R WCI  21
TRAVERSE CITY  FLURRIES  28  22  78 SW5       30.09R WCI  23
$$
MIZ007>008-015-260200-
EASTERN UPPER MICHIGAN

CITY           SKY/WX    TMP DP  RH WIND       PRES   REMARKS
KINROSS        CLOUDY    25  21  86 W10       30.05R WCI  15
MACKINAC ISLAN CLOUDY    26  19  73 NW6       30.06R WCI  20
NEWBERRY       CLOUDY    23  21  93 SW6       30.04S WCI  16
S. S. MARIE    CLOUDY    27  18  69 W12       30.01F WCI  17
MUNISING         N/A     21  12  68 SW6       30.07R WCI  13
$$
MIZ004>006-011>014-085-260200-
CENTRAL UPPER MICHIGAN

CITY           SKY/WX    TMP DP  RH WIND       PRES   REMARKS
MANISTIQUE     MOCLDY    19  17  92 W3        30.08R
ESCANABA       CLEAR     12   9  85 CALM      30.08R
MENOMINEE      CLOUDY    21  16  79 SW5       30.09R WCI  15
SAWYER-GWINN   CLEAR      7   3  85 CALM      30.03R
$$
MIZ001>003-009>011-084-260200-
WESTERN UPPER MICHIGAN

CITY           SKY/WX    TMP DP  RH WIND       PRES   REMARKS
IRON MOUNTAIN  CLEAR      7   5  91 CALM      30.04R
HOUGHTON       CLOUDY    20  12  71 SW5       30.01R WCI  13
COPPER HARBOR    N/A     17  11  77 W6        30.03R WCI   9
IRONWOOD       PTCLDY     9   5  85 CALM      29.99S
$$

ABBREVIATIONS USED IN REMARKS
   TC - TEMPERATURE IN CELSIUS
  WCI - WIND CHILL INDEX
   HX - HEAT INDEX
  VSB - VISIBILITY



USA.gov is the U.S. government's official web portal to all federal, state and local government web resources and services.